FW5428 Weather Reports


Display with metric or nautical units.
time (UTC)temp
F
wind
direction
speed
MPH
gust
MPH
rain 1hr
in
rain 24hr
in
rain mn
in
humidity
%
barometer
mb
20260901060144 55 135 5.0 0.0 0.00 0.00 0.00 93 1016.2
20260901055548 55 180 7.0 9.0 0.00 0.00 0.00 94 1016.2
20260901055038 55 180 4.0 9.0 0.00 0.00 0.00 94 1016.1
20260901054528 55 135 4.0 10.0 0.00 0.00 0.00 94 1016.2
20260901054018 55 90 5.0 14.0 0.00 0.00 0.00 94 1016.1
20260901053507 55 135 8.0 14.0 0.00 0.00 0.00 94 1015.8
20260901052957 55 135 8.0 14.0 0.00 0.00 0.00 94 1016.3
20260901052448 55 135 6.0 15.0 0.00 0.00 0.00 94 1016.5
20260901051938 55 180 9.0 15.0 0.00 0.00 0.00 94 1016.5
20260901051427 55 180 10.0 13.0 0.00 0.00 0.00 94 1016.6
20260901050918 55 180 10.0 15.0 0.00 0.00 0.00 94 1016.6
20260901045856 55 135 12.0 19.0 0.00 0.00 0.00 94 1016.7
20260901045347 55 180 15.0 20.0 0.00 0.00 0.00 94 1016.7
20260901044836 56 180 16.0 20.0 0.00 0.00 0.00 94 1016.8
20260901044327 56 180 12.0 17.0 0.00 0.00 0.00 95 1016.8
20260901043817 55 180 16.0 17.0 0.00 0.00 0.00 95 1017.0
20260901042247 56 180 8.0 12.0 0.00 0.00 0.00 95 1016.5
20260901041737 56 180 9.0 15.0 0.00 0.00 0.00 95 1016.6
20260901041226 56 180 11.0 17.0 0.00 0.00 0.00 95 1016.6
20260901040716 56 180 14.0 17.0 0.00 0.00 0.00 95 1016.7
20260901040206 56 180 10.0 13.0 0.00 0.00 0.00 95 1016.8
20260901035656 56 180 9.0 13.0 0.00 0.00 0.00 95 1016.7
20260901035146 56 180 9.0 15.0 0.00 0.00 0.00 95 1016.7
20260901034125 56 180 11.0 15.0 0.00 0.00 0.00 95 1016.8
20260901033615 56 180 11.0 19.0 0.00 0.00 0.00 95 1016.6
20260901033105 56 180 12.0 19.0 0.00 0.00 0.00 95 1016.6
20260901032555 56 180 15.0 18.0 0.00 0.00 0.00 95 1016.7
20260901032045 56 180 11.0 18.0 0.00 0.00 0.00 95 1016.6
20260901031534 56 180 14.0 18.0 0.00 0.00 0.00 95 1016.5
20260901031025 56 180 15.0 20.0 0.00 0.00 0.00 94 1016.4
20260901030004 56 180 15.0 21.0 0.00 0.00 0.28 94 1016.3
20260901025454 56 180 17.0 22.0 0.00 0.00 0.28 94 1016.3
20260901024944 56 180 17.0 23.0 0.00 0.00 0.28 94 1016.2
20260901024434 57 180 15.0 23.0 0.00 0.00 0.28 94 1016.3
20260901023924 57 180 17.0 23.0 0.00 0.00 0.28 93 1015.9
20260901023414 57 180 18.0 23.0 0.00 0.00 0.28 93 1016.0
20260901022904 57 180 17.0 23.0 0.00 0.00 0.28 93 1015.8
20260901022354 57 180 20.0 23.0 0.00 0.00 0.28 93 1015.9
20260901021856 57 180 15.0 20.0 0.00 0.00 0.28 93 1016.0
20260901021334 58 225 12.0 17.0 0.00 0.00 0.28 93 1016.1
20260901020823 58 225 12.0 16.0 0.00 0.00 0.28 93 1015.8
20260901020313 58 225 10.0 18.0 0.00 0.00 0.28 93 1015.7
20260901015803 58 180 15.0 18.0 0.00 0.00 0.28 92 1015.7
20260901015253 58 180 14.0 18.0 0.00 0.00 0.28 92 1015.6
20260901014742 58 225 13.0 18.0 0.00 0.00 0.28 92 1015.6
20260901014232 58 180 13.0 17.0 0.00 0.00 0.28 92 1015.4
20260901013723 58 180 14.0 16.0 0.00 0.00 0.28 92 1015.6
20260901013213 58 180 13.0 15.0 0.00 0.00 0.28 92 1015.4
20260901012702 58 225 11.0 15.0 0.00 0.00 0.28 93 1015.5
20260901011642 58 180 10.0 14.0 0.00 0.00 0.28 92 1015.4
20260901011132 58 180 11.0 15.0 0.00 0.00 0.28 93 1015.2
20260901010622 58 180 11.0 15.0 0.00 0.00 0.28 93 1015.3
20260901010112 58 180 9.0 14.0 0.00 0.00 0.28 93 1015.1
20260901005602 58 180 7.0 13.0 0.00 0.00 0.28 92 1015.2
20260901005052 58 225 8.0 14.0 0.00 0.00 0.28 92 1015.2
20260901004541 58 225 8.0 15.0 0.00 0.00 0.28 92 1015.2
20260901004032 58 180 8.0 17.0 0.00 0.00 0.28 92 1015.2
20260901003522 58 225 8.0 20.0 0.00 0.00 0.28 92 1015.2
20260901003011 59 225 10.0 20.0 0.00 0.00 0.28 92 1015.0
20260901002501 59 225 12.0 22.0 0.00 0.00 0.28 92 1015.0
20260901001951 59 180 15.0 22.0 0.00 0.00 0.28 92 1014.6
20260901001440 59 225 15.0 19.0 0.00 0.00 0.28 92 1014.8
20260901000931 59 180 10.0 15.0 0.00 0.00 0.28 92 1014.7
20260901000420 59 180 10.0 15.0 0.00 0.00 0.28 92 1014.5
20260831235401 59 225 4.0 7.0 0.00 0.00 0.28 91 1014.4
20260831234850 59 270 4.0 7.0 0.00 0.00 0.28 91 1014.2
20260831234340 60 225 4.0 7.0 0.00 0.00 0.28 91 1014.2
20260831233830 60 270 4.0 7.0 0.00 0.00 0.28 90 1014.1
20260831233320 60 270 4.0 4.0 0.00 0.00 0.28 90 1013.9
20260831232819 60 225 1.0 4.0 0.00 0.00 0.28 89 1014.1
20260831232300 60 270 2.0 8.0 0.00 0.00 0.28 89 1014.0
20260831231750 61 270 3.0 8.0 0.00 0.00 0.28 89 1013.9
20260831231240 61 270 3.0 6.0 0.00 0.00 0.28 89 1014.0
20260831230729 61 270 4.0 6.0 0.00 0.00 0.28 89 1014.0
20260831230219 62 225 2.0 4.0 0.00 0.00 0.28 88 1014.1
20260831225709 62 225 2.0 4.0 0.00 0.00 0.28 87 1013.8
20260831225159 62 225 1.0 3.0 0.00 0.00 0.28 87 1013.8
20260831224649 62 180 1.0 4.0 0.00 0.00 0.28 86 1013.8
20260831224139 63 180 2.0 4.0 0.00 0.00 0.28 86 1013.7
20260831223628 63 135 3.0 6.0 0.00 0.00 0.28 85 1013.6
20260831223119 63 135 2.0 6.0 0.00 0.00 0.28 85 1013.5
20260831222609 63 135 4.0 7.0 0.00 0.00 0.28 85 1013.5
20260831222059 63 135 5.0 7.0 0.00 0.00 0.28 83 1013.1
20260831221548 64 135 3.0 7.0 0.00 0.00 0.28 83 1013.1
20260831221038 64 90 2.0 13.0 0.00 0.00 0.28 83 1013.0
20260831220022 64 135 8.0 13.0 0.00 0.00 0.28 82 1012.9
20260831215512 64 90 6.0 13.0 0.00 0.00 0.28 81 1012.7
20260831215001 64 90 5.0 10.0 0.00 0.00 0.28 81 1012.6
20260831214452 64 90 3.0 11.0 0.00 0.00 0.28 81 1012.6
20260831213942 64 90 4.0 11.0 0.00 0.00 0.28 81 1012.4
20260831213431 64 90 6.0 15.0 0.00 0.00 0.28 82 1012.2
20260831212921 64 90 5.0 15.0 0.00 0.00 0.28 81 1012.5
20260831211901 64 135 10.0 17.0 0.00 0.00 0.28 81 1012.3
20260831211351 64 135 13.0 18.0 0.00 0.00 0.28 82 1012.2
20260831210841 64 135 13.0 18.0 0.00 0.00 0.28 82 1012.3
20260831210330 65 135 14.0 17.0 0.00 0.00 0.28 82 1012.3
20260831205820 64 135 12.0 17.0 0.00 0.00 0.28 81 1012.6
20260831205311 64 135 11.0 17.0 0.00 0.00 0.28 82 1012.4
20260831204800 64 135 10.0 13.0 0.00 0.00 0.28 84 1012.6
20260831203741 64 135 10.0 13.0 0.00 0.00 0.28 83 1012.6
20260831202720 64 135 7.0 11.0 0.00 0.00 0.28 84 1012.8
20260831202210 64 135 8.0 11.0 0.00 0.00 0.28 84 1012.6
20260831201659 64 135 7.0 11.0 0.00 0.00 0.28 85 1012.6
20260831201149 64 135 5.0 8.0 0.00 0.00 0.28 85 1012.7
20260831195619 64 180 7.0 10.0 0.00 0.00 0.28 84 1012.5
20260831195109 63 180 8.0 10.0 0.00 0.00 0.28 82 1012.6
20260831194049 64 135 5.0 9.0 0.00 0.00 0.28 85 1012.5
20260831193539 64 90 6.0 11.0 0.00 0.00 0.28 84 1012.6
20260831193029 64 135 7.0 11.0 0.00 0.00 0.28 82 1012.7
20260831192518 64 135 8.0 11.0 0.00 0.00 0.28 82 1012.6
20260831192008 64 135 7.0 11.0 0.00 0.00 0.28 82 1012.7
20260831191459 64 135 8.0 11.0 0.00 0.00 0.28 82 1012.6
20260831185928 64 180 6.0 11.0 0.00 0.00 0.28 83 1012.5
20260831185418 64 135 5.0 16.0 0.00 0.00 0.28 83 1012.7
20260831184908 64 135 9.0 16.0 0.00 0.00 0.28 80 1012.3
20260831183848 64 135 8.0 19.0 0.00 0.00 0.28 82 1012.4
20260831183337 63 135 10.0 19.0 0.00 0.00 0.28 82 1012.4
20260831182827 63 90 11.0 17.0 0.00 0.00 0.28 82 1012.2
20260831182318 63 135 12.0 17.0 0.00 0.00 0.28 81 1012.3
20260831181807 63 135 11.0 17.0 0.00 0.00 0.28 83 1012.2
20260831180747 63 135 12.0 21.0 0.00 0.00 0.28 82 1012.0
20260831180237 64 135 15.0 21.0 0.00 0.00 0.28 82 1012.0
20260831175727 64 180 13.0 29.0 0.00 0.00 0.28 82 1011.9
20260831175216 65 135 13.0 29.0 0.00 0.00 0.28 80 1011.9
20260831174706 64 180 12.0 21.0 0.00 0.00 0.28 77 1011.7
20260831174156 64 90 6.0 21.0 0.00 0.00 0.28 77 1011.7
20260831172625 63 90 11.0 21.0 0.00 0.00 0.28 81 1012.0
20260831172116 63 90 11.0 21.0 0.00 0.00 0.28 80 1012.2
20260831171606 63 135 16.0 22.0 0.00 0.00 0.28 81 1012.0
20260831171056 63 90 12.0 22.0 0.00 0.00 0.28 81 1012.4
20260831170035 63 90 8.0 23.0 0.00 0.00 0.28 80 1012.5
20260831165526 63 90 17.0 23.0 0.00 0.00 0.28 81 1012.4
20260831163955 62 90 8.0 17.0 0.00 0.00 0.28 81 1012.7
20260831163445 61 135 4.0 18.0 0.00 0.00 0.28 82 1012.7
20260831162425 60 135 12.0 16.0 0.00 0.00 0.28 85 1013.0
20260831161914 61 135 11.0 16.0 0.00 0.00 0.28 86 1013.2
20260831161405 61 135 11.0 17.0 0.00 0.00 0.28 85 1013.1
20260831160855 60 135 6.0 17.0 0.00 0.00 0.28 84 1013.0
20260831160344 60 90 12.0 17.0 0.00 0.00 0.28 85 1013.2
20260831155834 60 90 15.0 18.0 0.00 0.00 0.28 85 1013.3
20260831155324 60 135 5.0 19.0 0.00 0.00 0.28 86 1017.6
20260831154304 60 90 15.0 18.0 0.00 0.00 0.00 86 1013.0
20260831153754 60 135 11.0 18.0 0.00 0.00 0.00 85 1013.1
20260831152734 60 180 10.0 21.0 0.00 0.00 0.00 86 1012.9
20260831152224 60 135 16.0 21.0 0.00 0.00 0.00 87 1012.8
20260831151713 59 135 13.0 21.0 0.00 0.00 0.00 87 1012.6
20260831151204 59 135 16.0 21.0 0.00 0.00 0.00 88 1012.6
20260831150653 59 135 15.0 20.0 0.00 0.00 0.00 87 1012.7
20260831145633 59 135 12.0 17.0 0.00 0.00 0.00 88 1012.6
20260831145123 59 135 14.0 21.0 0.00 0.00 0.00 88 1012.7
20260831144622 59 135 7.0 21.0 0.00 0.00 0.00 88 1012.7
20260831144102 59 135 16.0 20.0 0.00 0.00 0.00 87 1012.4
20260831143552 59 90 11.0 20.0 0.00 0.00 0.00 88 1012.4
20260831143042 59 135 10.0 24.0 0.00 0.00 0.00 88 1012.2
20260831142532 59 135 16.0 24.0 0.00 0.00 0.00 88 1011.9
20260831142021 59 135 16.0 21.0 0.00 0.00 0.00 88 1012.2
20260831141512 59 180 10.0 18.0 0.00 0.00 0.00 88 1012.7
20260831141002 58 135 10.0 18.0 0.00 0.00 0.00 88 1012.3
20260831140451 58 135 12.0 18.0 0.00 0.00 0.00 88 1012.3
20260831135941 58 135 12.0 22.0 0.00 0.00 0.00 88 1012.5
20260831135432 58 135 13.0 22.0 0.00 0.00 0.00 88 1012.3
20260831134411 59 135 6.0 15.0 0.00 0.00 0.00 87 1012.5
20260831133901 58 135 11.0 17.0 0.00 0.00 0.00 87 1012.6
20260831133351 58 90 10.0 18.0 0.00 0.00 0.00 87 1013.0
20260831132331 58 90 6.0 21.0 0.00 0.00 0.00 87 1012.4
20260831131821 58 135 14.0 21.0 0.00 0.00 0.00 87 1012.4
20260831130800 58 90 6.0 21.0 0.00 0.00 0.00 88 1012.1
20260831125230 58 135 12.0 19.0 0.00 0.00 0.00 88 1012.3
20260831124720 58 90 9.0 19.0 0.00 0.00 0.00 88 1012.5
20260831123659 58 90 10.0 16.0 0.00 0.00 0.00 89 1012.6
20260831123150 58 90 8.0 16.0 0.00 0.00 0.00 89 1012.5
20260831122639 58 135 10.0 14.0 0.00 0.00 0.00 89 1012.8
20260831122129 58 90 2.0 14.0 0.00 0.00 0.00 89 1012.7
20260831121619 57 180 7.0 13.0 0.00 0.00 0.00 89 1012.6
20260831120049 58 90 6.0 14.0 0.00 0.00 0.00 89 1012.3
20260831115545 57 90 4.0 12.0 0.00 0.00 0.00 89 1012.2
20260831115028 57 90 2.0 15.0 0.00 0.00 0.00 90 1011.9
20260831114518 57 270 6.0 17.0 0.00 0.00 0.00 90 1012.2
20260831113459 57 45 4.0 12.0 0.00 0.00 0.00 90 1012.4
20260831112948 57 90 5.0 12.0 0.00 0.00 0.00 90 1012.2
20260831112438 57 90 3.0 17.0 0.00 0.00 0.00 90 1012.3
20260831111928 57 90 4.0 17.0 0.00 0.00 0.00 90 1012.0
20260831111418 57 45 6.0 11.0 0.00 0.00 0.00 90 1011.9
20260831110907 57 90 4.0 12.0 0.00 0.00 0.00 91 1012.1
20260831110358 57 135 4.0 12.0 0.00 0.00 0.00 91 1012.0
20260831105848 57 90 6.0 11.0 0.00 0.00 0.00 91 1011.9
20260831105337 57 90 3.0 11.0 0.00 0.00 0.00 91 1012.1
20260831104827 56 90 4.0 9.0 0.00 0.00 0.00 91 1012.1
20260831104317 56 90 1.0 10.0 0.00 0.00 0.00 91 1011.9
20260831103807 56 90 4.0 12.0 0.00 0.00 0.00 91 1011.6
20260831103257 56 90 4.0 12.0 0.00 0.00 0.00 91 1011.8
20260831102747 56 90 8.0 12.0 0.00 0.00 0.00 91 1011.5
20260831102237 56 135 5.0 17.0 0.00 0.00 0.00 91 1011.5
20260831101727 56 45 8.0 17.0 0.00 0.00 0.00 91 1011.7
20260831101217 56 90 4.0 10.0 0.00 0.00 0.00 91 1011.5
20260831100706 56 45 3.0 11.0 0.00 0.00 0.00 91 1011.6
20260831100156 56 90 7.0 15.0 0.00 0.00 0.00 91 1011.6
20260831095135 56 45 4.0 11.0 0.00 0.00 0.00 92 1011.4
20260831094629 57 180 3.0 11.0 0.00 0.00 0.00 92 1011.6
20260831094115 57 90 2.0 8.0 0.00 0.00 0.00 92 1011.6
20260831093606 56 135 3.0 13.0 0.00 0.00 0.00 91 1011.9
20260831093056 56 90 2.0 13.0 0.00 0.00 0.00 92 1011.7
20260831092546 56 90 2.0 11.0 0.00 0.00 0.00 92 1011.8
20260831092035 56 90 2.0 11.0 0.00 0.00 0.00 92 1011.7
20260831091015 56 135 2.0 6.0 0.00 0.00 0.00 92 1011.7
20260831090508 56 90 3.0 6.0 0.00 0.00 0.00 92 1011.8
20260831085955 56 90 2.0 6.0 0.00 0.00 0.00 92 1011.8
20260831085445 56 180 0.0 4.0 0.00 0.00 0.00 92 1012.0
20260831084935 56 90 2.0 4.0 0.00 0.00 0.00 92 1012.1
20260831083915 56 90 2.0 4.0 0.00 0.00 0.00 92 1011.9
20260831082854 56 90 2.0 8.0 0.00 0.00 0.00 92 1012.1
20260831082344 56 90 4.0 7.0 0.00 0.00 0.00 92 1012.1
20260831081833 56 90 2.0 6.0 0.00 0.00 0.00 92 1011.8
20260831081324 55 90 3.0 8.0 0.00 0.00 0.00 92 1012.0
20260831080814 55 90 3.0 8.0 0.00 0.00 0.00 92 1011.9
20260831080303 55 90 2.0 8.0 0.00 0.00 0.00 92 1012.3
20260831075753 55 90 3.0 12.0 0.00 0.00 0.00 92 1012.2
20260831075243 55 45 4.0 12.0 0.00 0.00 0.00 92 1012.1
20260831074734 55 90 2.0 9.0 0.00 0.00 0.00 92 1012.4
20260831074223 55 90 4.0 9.0 0.00 0.00 0.00 92 1012.2
20260831073713 56 90 2.0 10.0 0.00 0.00 0.00 92 1012.4
20260831072654 56 90 3.0 8.0 0.00 0.00 0.00 92 1012.5
20260831072142 56 45 3.0 8.0 0.00 0.00 0.00 92 1012.8
20260831071633 56 90 2.0 9.0 0.00 0.00 0.00 92 1012.7
20260831070613 55 90 4.0 13.0 0.00 0.00 0.00 92 1012.8
20260831065552 56 180 3.0 13.0 0.00 0.00 0.00 92 1012.8
20260831065042 56 135 4.0 13.0 0.00 0.00 0.00 92 1012.8
20260831064532 56 135 2.0 14.0 0.00 0.00 0.00 92 1012.9
20260831064022 55 90 3.0 15.0 0.00 0.00 0.00 92 1013.2
20260831063512 55 135 8.0 15.0 0.00 0.00 0.00 92 1013.3
20260831063001 55 90 8.0 14.0 0.00 0.00 0.00 92 1013.3
20260831062451 55 135 5.0 13.0 0.00 0.00 0.00 92 1013.2
20260831061942 55 90 8.0 13.0 0.00 0.00 0.00 92 1013.5
20260831061431 55 90 2.0 16.0 0.00 0.00 0.00 92 1013.3
20260831060921 55 90 7.0 16.0 0.00 0.00 0.00 92 1013.4
20260831060411 55 135 6.0 0.0 0.00 0.00 0.00 92 1013.6